カタログに戻る

STARLINK-35817

運用中通信VLEO
NORAD 66357·PAYLOAD·🇺🇸 United States

打ち上げ Nov 6, 2025 から Vandenberg Space Force Base

Loading…

次のパス (今後24時間)

TLE

最新Source: CelesTrak SupGP

元期: Sep 14, 2026, 22:44 UTC

1 66357C 25254K   26257.94770833  .00050549  00000+0  14939-2 0  2575
2 66357  53.1577  71.5068 0001224  82.7698  82.0597 15.34355948    12

AllMySatでSTARLINK-35817をリアルタイム追跡

Download on the App Store